| time (UTC) | temp C | wind direction | speed KPH | gust KPH | rain 1hr cm | rain 24hr cm | rain mn cm | humidity % | barometer mb |
| 20260506141020 | 11 | 232 | 6.4 | 12.9 | 0.00 | 0.00 | 0.00 | 34 | 1012.7 |
| 20260506140015 | 11 | 255 | 9.7 | 17.7 | 0.00 | 0.00 | 0.00 | 35 | 1012.8 |
| 20260506135030 | 11 | 239 | 8.0 | 14.5 | 0.00 | 0.00 | 0.00 | 34 | 1012.8 |
| 20260506134026 | 11 | 213 | 4.8 | 6.4 | 0.00 | 0.00 | 0.00 | 35 | 1012.8 |
| 20260506133021 | 12 | 206 | 6.4 | 14.5 | 0.00 | 0.00 | 0.00 | 33 | 1012.8 |
| 20260506132017 | 11 | 197 | 4.8 | 11.3 | 0.00 | 0.00 | 0.00 | 34 | 1013.0 |
| 20260506131032 | 12 | 207 | 4.8 | 14.5 | 0.00 | 0.00 | 0.00 | 33 | 1013.1 |
| 20260506130047 | 11 | 254 | 6.4 | 12.9 | 0.00 | 0.00 | 0.00 | 32 | 1012.9 |
| 20260506125022 | 11 | 241 | 6.4 | 11.3 | 0.00 | 0.00 | 0.00 | 32 | 1013.0 |
| 20260506124017 | 12 | 242 | 6.4 | 12.9 | 0.00 | 0.00 | 0.00 | 31 | 1013.0 |
| 20260506123032 | 11 | 253 | 8.0 | 16.1 | 0.00 | 0.00 | 0.00 | 32 | 1013.0 |
| 20260506122028 | 11 | 248 | 9.7 | 17.7 | 0.00 | 0.00 | 0.00 | 32 | 1012.8 |
| 20260506121024 | 12 | 230 | 6.4 | 14.5 | 0.00 | 0.00 | 0.00 | 31 | 1012.8 |
| 20260506120018 | 10 | 250 | 4.8 | 14.5 | 0.00 | 0.00 | 0.00 | 32 | 1013.0 |
| 20260506115034 | 11 | 252 | 6.4 | 12.9 | 0.00 | 0.00 | 0.00 | 31 | 1013.0 |
| 20260506114029 | 10 | 231 | 1.6 | 6.4 | 0.00 | 0.00 | 0.00 | 31 | 1013.1 |
| 20260506113024 | 10 | 244 | 4.8 | 12.9 | 0.00 | 0.00 | 0.00 | 32 | 1013.2 |
| 20260506112019 | 11 | 252 | 9.7 | 16.1 | 0.00 | 0.00 | 0.00 | 32 | 1013.2 |
| 20260506111035 | 10 | 252 | 6.4 | 11.3 | 0.00 | 0.00 | 0.00 | 33 | 1013.2 |
| 20260506110031 | 10 | 239 | 4.8 | 14.5 | 0.00 | 0.00 | 0.00 | 32 | 1013.3 |
| 20260506105045 | 10 | 252 | 8.0 | 12.9 | 0.00 | 0.00 | 0.00 | 35 | 1013.3 |
| 20260506104020 | 9 | 254 | 8.0 | 12.9 | 0.00 | 0.00 | 0.00 | 35 | 1013.4 |
| 20260506103016 | 10 | 233 | 6.4 | 12.9 | 0.00 | 0.00 | 0.00 | 34 | 1013.4 |
| 20260506102031 | 10 | 260 | 6.4 | 12.9 | 0.00 | 0.00 | 0.00 | 34 | 1013.4 |
| 20260506101026 | 8 | 258 | 8.0 | 14.5 | 0.00 | 0.00 | 0.00 | 35 | 1013.6 |
| 20260506100022 | 9 | 217 | 4.8 | 9.7 | 0.00 | 0.00 | 0.00 | 33 | 1013.5 |
| 20260506095038 | 8 | 242 | 4.8 | 11.3 | 0.00 | 0.00 | 0.00 | 34 | 1013.6 |
| 20260506094053 | 10 | 215 | 3.2 | 6.4 | 0.00 | 0.00 | 0.00 | 35 | 1013.6 |
| 20260506093109 | 10 | 244 | 4.8 | 11.3 | 0.00 | 0.00 | 0.00 | 35 | 1013.6 |
| 20260506092024 | 8 | 206 | 1.6 | 4.8 | 0.00 | 0.00 | 0.00 | 38 | 1013.8 |
| 20260506091018 | 10 | 252 | 8.0 | 12.9 | 0.00 | 0.00 | 0.00 | 38 | 1013.7 |
| 20260506090034 | 10 | 168 | 1.6 | 4.8 | 0.00 | 0.00 | 0.00 | 37 | 1013.6 |
| 20260506085030 | 10 | 170 | 3.2 | 11.3 | 0.00 | 0.00 | 0.00 | 37 | 1013.8 |
| 20260506084025 | 9 | 214 | 4.8 | 11.3 | 0.00 | 0.00 | 0.00 | 36 | 1013.9 |
| 20260506083039 | 9 | 237 | 3.2 | 9.7 | 0.00 | 0.00 | 0.00 | 38 | 1014.0 |
| 20260506082041 | 9 | 166 | 3.2 | 9.7 | 0.00 | 0.00 | 0.00 | 38 | 1014.0 |
| 20260506081031 | 9 | 148 | 1.6 | 6.4 | 0.00 | 0.00 | 0.00 | 41 | 1013.9 |
| 20260506073032 | 7 | 218 | 3.2 | 6.4 | 0.00 | 0.00 | 0.00 | 44 | 1014.1 |
| 20260506072028 | 7 | 242 | 3.2 | 4.8 | 0.00 | 0.00 | 0.00 | 44 | 1014.0 |
| 20260506071022 | 8 | 190 | 1.6 | 4.8 | 0.00 | 0.00 | 0.00 | 43 | 1014.0 |
| 20260506062019 | 5 | 237 | 3.2 | 4.8 | 0.00 | 0.00 | 0.00 | 54 | 1013.9 |
| 20260506061034 | 5 | 225 | 4.8 | 6.4 | 0.00 | 0.00 | 0.00 | 59 | 1013.8 |
| 20260506051026 | 2 | 227 | 3.2 | 4.8 | 0.00 | 0.00 | 0.00 | 73 | 1013.6 |
| 20260506045037 | 1 | 229 | 1.6 | 3.2 | 0.00 | 0.03 | 0.00 | 76 | 1013.5 |
| 20260506044032 | 0 | 197 | 0.0 | 1.6 | 0.00 | 0.03 | 0.00 | 82 | 1013.6 |
| 20260506043028 | 0 | 0.0 | 0.0 | 0.00 | 0.03 | 0.00 | 83 | 1013.5 | |
| 20260506042022 | 0 | 0.0 | 0.0 | 0.00 | 0.03 | 0.00 | 83 | 1013.5 | |
| 20260506041018 | 0 | 184 | 0.0 | 1.6 | 0.00 | 0.03 | 0.00 | 85 | 1013.4 |
| 20260506040034 | -1 | 0.0 | 0.0 | 0.00 | 0.03 | 0.00 | 91 | 1013.3 | |
| 20260506035029 | -2 | 0.0 | 0.0 | 0.00 | 0.03 | 0.00 | 93 | 1013.3 | |
| 20260506034044 | -3 | 0.0 | 0.0 | 0.00 | 0.03 | 0.00 | 93 | 1013.2 | |
| 20260506033019 | -3 | 0.0 | 0.0 | 0.00 | 0.03 | 0.00 | 92 | 1013.1 | |
| 20260506032035 | -3 | 171 | 0.0 | 1.6 | 0.00 | 0.03 | 0.00 | 94 | 1012.9 |
| 20260506031030 | -3 | 0.0 | 0.0 | 0.00 | 0.03 | 0.00 | 93 | 1012.8 | |
| 20260506030026 | -3 | 0.0 | 0.0 | 0.00 | 0.03 | 0.00 | 92 | 1012.8 | |
| 20260506025041 | -2 | 0.0 | 0.0 | 0.00 | 0.03 | 0.00 | 91 | 1012.7 | |
| 20260506024017 | -2 | 169 | 1.6 | 1.6 | 0.00 | 0.03 | 0.00 | 90 | 1012.8 |
| 20260506023032 | -2 | 0.0 | 0.0 | 0.00 | 0.03 | 0.00 | 90 | 1012.7 | |
| 20260506022027 | -2 | 0.0 | 0.0 | 0.00 | 0.03 | 0.00 | 89 | 1012.7 | |
| 20260506021022 | -2 | 0.0 | 0.0 | 0.00 | 0.03 | 0.00 | 87 | 1012.4 | |
| 20260506020058 | -1 | 0.0 | 0.0 | 0.00 | 0.03 | 0.00 | 86 | 1012.5 | |
| 20260506015033 | -1 | 175 | 0.0 | 1.6 | 0.00 | 0.03 | 0.00 | 84 | 1012.4 |
| 20260506014029 | -1 | 215 | 1.6 | 3.2 | 0.00 | 0.03 | 0.00 | 82 | 1012.2 |
| 20260506013043 | -1 | 222 | 0.0 | 3.2 | 0.00 | 0.03 | 0.00 | 83 | 1012.1 |
| 20260506012039 | -1 | 208 | 0.0 | 3.2 | 0.00 | 0.03 | 0.00 | 83 | 1012.1 |
| 20260506011115 | 0 | 195 | 0.0 | 3.2 | 0.00 | 0.03 | 0.00 | 80 | 1012.1 |
| 20260506010049 | 0 | 223 | 1.6 | 3.2 | 0.00 | 0.03 | 0.00 | 77 | 1012.0 |
| 20260506005025 | 0 | 249 | 3.2 | 6.4 | 0.00 | 0.03 | 0.00 | 75 | 1011.9 |
| 20260506004020 | 0 | 232 | 1.6 | 4.8 | 0.00 | 0.03 | 0.00 | 76 | 1011.8 |
| 20260506003056 | 0 | 232 | 3.2 | 4.8 | 0.00 | 0.03 | 0.00 | 76 | 1011.7 |
| 20260506002031 | 0 | 226 | 3.2 | 4.8 | 0.00 | 0.03 | 0.00 | 77 | 1011.4 |
| 20260506001027 | 0 | 226 | 1.6 | 3.2 | 0.00 | 0.03 | 0.00 | 77 | 1011.5 |
| 20260506000022 | 0 | 211 | 0.0 | 1.6 | 0.00 | 0.03 | 0.00 | 78 | 1011.4 |
| 20260505235018 | 0 | 213 | 0.0 | 1.6 | 0.00 | 0.05 | 0.00 | 78 | 1011.2 |
| 20260505234033 | 1 | 219 | 1.6 | 3.2 | 0.00 | 0.08 | 0.00 | 77 | 1011.3 |
| 20260505233048 | 1 | 244 | 3.2 | 4.8 | 0.00 | 0.10 | 0.00 | 77 | 1011.1 |
| 20260505232024 | 1 | 228 | 1.6 | 4.8 | 0.00 | 0.15 | 0.00 | 76 | 1011.2 |
| 20260505231040 | 1 | 219 | 1.6 | 3.2 | 0.00 | 0.18 | 0.00 | 75 | 1011.0 |
| 20260505230035 | 1 | 215 | 1.6 | 4.8 | 0.00 | 0.28 | 0.00 | 76 | 1011.0 |
| 20260505225030 | 1 | 236 | 3.2 | 4.8 | 0.00 | 0.38 | 0.00 | 75 | 1011.1 |
| 20260505224025 | 1 | 237 | 1.6 | 4.8 | 0.00 | 0.48 | 0.00 | 76 | 1011.2 |
| 20260505223020 | 1 | 239 | 1.6 | 4.8 | 0.00 | 0.58 | 0.00 | 75 | 1011.0 |
| 20260505222016 | 1 | 226 | 1.6 | 4.8 | 0.00 | 0.66 | 0.00 | 74 | 1010.9 |
| 20260505221032 | 1 | 230 | 3.2 | 6.4 | 0.00 | 0.76 | 0.00 | 74 | 1010.9 |
| 20260505220027 | 1 | 246 | 3.2 | 11.3 | 0.00 | 0.86 | 0.86 | 73 | 1010.8 |
| 20260505215023 | 2 | 193 | 1.6 | 3.2 | 0.00 | 0.91 | 0.86 | 73 | 1010.7 |
| 20260505214018 | 2 | 246 | 3.2 | 11.3 | 0.00 | 0.94 | 0.86 | 71 | 1010.6 |
| 20260505213034 | 2 | 243 | 3.2 | 6.4 | 0.00 | 0.97 | 0.86 | 71 | 1010.6 |
| 20260505212028 | 2 | 227 | 1.6 | 3.2 | 0.00 | 1.02 | 0.86 | 72 | 1010.5 |
| 20260505211024 | 3 | 234 | 3.2 | 6.4 | 0.00 | 1.02 | 0.86 | 69 | 1010.3 |
| 20260505210039 | 3 | 207 | 0.0 | 1.6 | 0.00 | 1.02 | 0.86 | 69 | 1010.1 |
| 20260505205035 | 3 | 229 | 1.6 | 3.2 | 0.00 | 1.02 | 0.86 | 68 | 1010.1 |
| 20260505204030 | 3 | 222 | 3.2 | 4.8 | 0.00 | 1.02 | 0.86 | 67 | 1010.1 |
| 20260505203025 | 3 | 248 | 3.2 | 9.7 | 0.00 | 1.02 | 0.86 | 66 | 1009.9 |
| 20260505202021 | 3 | 232 | 3.2 | 6.4 | 0.00 | 1.02 | 0.86 | 64 | 1010.0 |
| 20260505201017 | 3 | 258 | 3.2 | 6.4 | 0.00 | 1.02 | 0.86 | 63 | 1009.8 |
| 20260505200032 | 3 | 254 | 6.4 | 12.9 | 0.00 | 1.02 | 0.86 | 61 | 1009.9 |
| 20260505195028 | 3 | 237 | 4.8 | 9.7 | 0.00 | 1.02 | 0.86 | 63 | 1010.0 |
| 20260505194022 | 3 | 214 | 1.6 | 3.2 | 0.00 | 1.02 | 0.86 | 67 | 1009.8 |
| 20260505193018 | 2 | 205 | 1.6 | 1.6 | 0.00 | 1.02 | 0.86 | 70 | 1009.8 |
| 20260505192033 | 3 | 0.0 | 0.0 | 0.00 | 1.02 | 0.86 | 66 | 1009.6 | |
| 20260505191028 | 3 | 0.0 | 0.0 | 0.00 | 1.02 | 0.86 | 66 | 1009.6 | |
| 20260505190023 | 3 | 0.0 | 0.0 | 0.00 | 1.02 | 0.86 | 63 | 1009.3 | |
| 20260505185019 | 4 | 206 | 0.0 | 1.6 | 0.00 | 1.02 | 0.86 | 61 | 1009.4 |
| 20260505184033 | 5 | 215 | 0.0 | 3.2 | 0.00 | 1.02 | 0.86 | 59 | 1009.2 |
| 20260505183029 | 5 | 222 | 3.2 | 4.8 | 0.00 | 1.02 | 0.86 | 56 | 1009.2 |
| 20260505182025 | 5 | 260 | 3.2 | 9.7 | 0.00 | 1.02 | 0.86 | 55 | 1009.0 |
| 20260505181021 | 6 | 252 | 6.4 | 9.7 | 0.00 | 1.02 | 0.86 | 54 | 1009.1 |
| 20260505180016 | 6 | 258 | 4.8 | 12.9 | 0.00 | 1.02 | 0.86 | 53 | 1009.1 |
| 20260505175031 | 6 | 250 | 4.8 | 11.3 | 0.00 | 1.02 | 0.86 | 51 | 1009.1 |
| 20260505174026 | 6 | 232 | 1.6 | 6.4 | 0.00 | 1.02 | 0.86 | 48 | 1008.8 |
| 20260505173042 | 7 | 238 | 1.6 | 6.4 | 0.00 | 1.02 | 0.86 | 49 | 1008.8 |
| 20260505172017 | 7 | 273 | 3.2 | 9.7 | 0.00 | 1.02 | 0.86 | 48 | 1008.7 |
| 20260505171114 | 7 | 237 | 3.2 | 11.3 | 0.00 | 1.02 | 0.86 | 50 | 1008.8 |
| 20260505170049 | 8 | 252 | 6.4 | 17.7 | 0.00 | 1.02 | 0.86 | 49 | 1008.8 |
| 20260505165024 | 8 | 280 | 8.0 | 17.7 | 0.00 | 1.02 | 0.86 | 45 | 1008.4 |
| 20260505164120 | 7 | 228 | 3.2 | 6.4 | 0.00 | 1.02 | 0.86 | 47 | 1008.2 |
| 20260505163036 | 7 | 229 | 1.6 | 4.8 | 0.00 | 1.02 | 0.86 | 46 | 1008.3 |
| 20260505162031 | 8 | 272 | 4.8 | 9.7 | 0.00 | 1.02 | 0.86 | 44 | 1008.2 |
| 20260505161026 | 8 | 260 | 8.0 | 14.5 | 0.00 | 1.02 | 0.86 | 41 | 1007.9 |
| 20260505153027 | 9 | 256 | 11.3 | 22.5 | 0.00 | 1.02 | 0.86 | 39 | 1007.8 |
| 20260505152023 | 8 | 256 | 8.0 | 14.5 | 0.00 | 1.02 | 0.86 | 45 | 1008.0 |
| 20260505151018 | 7 | 249 | 12.9 | 22.5 | 0.00 | 1.02 | 0.86 | 49 | 1008.0 |